Tracking 19484 objects as of 20-Jan-2019
HD Live streaming from Space Station
objects crossing your sky now

GALILEO 26 (2C2)

Track GALILEO 26 (2C2) now!
GALILEO 26 (2C2) is classified as:


NORAD ID: 43565
Int'l Code: 2018-060B
Perigee: 23,211.4 km
Apogee: 23,246.8 km
Inclination: 56.5 °
Period: 844.7 minutes
Semi major axis: 29600 km
RCS: Unknown
Launch date: July 25, 2018
Source: European Space Agency (ESA)
Launch site: FRENCH GUIANA (FRGUI)
aabbcc
Your satellite tracking list
Your tracking list is empty




NASA's NSSDC Master Catalog

Two Line Element Set (TLE):
1 43565U 18060B   19018.78510206 -.00000034  00000-0  00000+0 0  9993
2 43565  56.4550  55.2198 0005976 276.8162  83.1918  1.70476230  3079
Source of the keplerian elements: AFSPC